SCP
0 0 0 0 0 0 0 0 0 0 0 0 0 0 0 0 0 0 0 0 0 0 0 0 0 0 0 0 0 0 0 0 0 0 0 0 0 0 0 0 0 0 0 0
0 0 0 0 0 0 0 0 0 0 0 0 0 0 0 0 0 0 0 0 0 0 0 0 0 0 0 0 0 0 0 0 0 0 0 0 0 0 0 0 0 0 0 0
0 0 0 0 0 0 0 0 0 0 0 0 0 0 0 0 0 0 0 0 0 0 0 0 0 0 0 0 0 0 0 0 0 0 0 0 0 0 0 0 0 0 0 0
0 0 0 0 0 0 0 0 0 0 0 0 0 0 0 0 0 0 0 0 0 0 0 0 0 0 0 0 0 0 0 0 0 0 0 0 0 0 0 0 0 0 0 0
0 0 0 0 0 0 0 0 0 0 0 0 0 0 0 0 0 0 0 0 0 0 0 0 0 0 0 0 0 0 0 0 0 0 0 0 0 0 0 0 0 0 0 0
0 0 0 0 0 0 0 0 0 0 0 0 0 0 0 0 0 0 0 0 0 0 0 0 0 0 0 0 0 0 0 0 0 0 0 0 0 0 0 0 0 0 0 0
0 0 0 0 0 0 0 0 0 0 0 0 0 0 0 0 0 0 0 0 0 0 0 0 0 0 0 0 0 0 0 0 0 0 0 0 0 0 0 0 0 0 0 0
0 0 0 0 0 0 0 0 0 0 0 0 0 0 0 0 0 0 0 0 0 0 0 0 0 0 0 0 0 0 0 0 0 0 0 0 0 0 0 0 0 0 0 0
0 0 0 0 0 0 0 0 0 0 0 0 0 0 0 0 0 0 0 0 0 0 0 0 0 0 0 0 0 0 0 0 0 0 0 0 0 0 0 0 0 0 0 0
0 0 0 0 0 0 0 0 0 0 0 0 0 0 0 0 0 0 0 0 0 0 0 0 0 0 0 0 0 0 0 0 0 0 0 0 0 0 0 0 0 0 0 0
0 0 0 0 0 0 0 0 0 0 0 0 0 0 0 0 0 0 0 0 0 0 0 0 0 0 0 0 0 0 0 0 0 0 0 0 0 0 0 0 0 0 0 0
0 0 0 0 0 0 0 0 0 0 0 0 0 0 0 0 0 0 0 0 0 0 0 0 0 0 0 0 0 0 0 0 0 0 0 0 0 0 0 0 0 0 0 0
0 0 0 0 0 0 0 0 0 0 0 0 0 0 0 0 0 0 0 0 0 0 0 0 0 0 0 0 0 0 0 0 0 0 0 0 0 0 0 0 0 0 0 0
0 0 0 0 0 0 0 0 0 0 0 0 0 0 0 0 0 0 0 0 0 0 0 0 0 0 0 0 0 0 0 0 0 0 0 0 0 0 0 0 0 0 0 0
0 0 0 0 0 0 0 0 0 0 0 0 0 0 0 0 0 0 0 0 0 0 0 0 0 0 0 0 0 0 0 0 0 0 0 0 0 0 0 0 0 0 0 0
0 0 0 0 0 0 0 0 0 0 0 0 0 0 0 0 0 0 0 0 0 0 0 0 0 0 0 0 0 0 0 0 0 0 0 0 0 0 0 0 0 0 0 0
0 0 0 0 0 0 0 0 0 0 0 0 0 0 0 0 0 0 0 0 0 0 0 0 0 0 0 0 0 0 0 0 0 0 0 0 0 0 0 0 0 0 0 0
0 0 0 0 0 0 0 0 0 0 0 0 0 0 0 0 0 0 0 0 0 0 0 0 0 0 0 0 0 0 0 0 0 0 0 0 0 0 0 0 0 0 0 0
0 0 0 0 0 0 0 0 0 0 0 0 0 0 0 0 0 0 0 0 0 0 0 0 0 0 0 0 0 0 0 0 0 0 0 0 0 0 0 0 0 0 0 0
0 0 0 0 0 0 0 0 0 0 0 0 0 0 0 0 0 0 0 0 0 0 0 0 0 0 0 0 0 0 0 0 0 0 0 0 0 0 0 0 0 0 0 0
0 0 0 0 0 0 0 0 0 0 0 0 0 0 0 0 0 0 0 0 0 0 0 0 0 0 0 0 0 0 0 0 0 0 0 0 0 0 0 0 0 0 0 0
0 0 0 0 0 0 0 0 0 0 0 0 0 0 0 0 0 0 0 0 0 0 0 0 0 0 0 0 0 0 0 0 0 0 0 0 0 0 0 0 0 0 0 0
0 0 0 0 0 0 0 0 0 0 0 0 0 0 0 0 0 0 0 0 0 0 0 0 0 0 0 0 0 0 0 0 0 0 0 0 0 0 0 0 0 0 0 0
0 0 0 0 0 0 0 0 0 0 0 0 0 0 0 0 0 0 0 0 0 0 0 0 0 0 0 0 0 0 0 0 0 0 0 0 0 0 0 0 0 0 0 0
0 0 0 0 0 0 0 0 0 0 0 0 0 0 0 0 0 0 0 0 0 0 0 0 0 0 0 0 0 0 0 0 0 0 0 0 0 0 0 0 0 0 0 0
0 0 0 0 0 0 0 0 0 0 0 0 0 0 0 0 0 0 0 0 0 0 0 0 0 0 0 0 0 0 0 0 0 0 0 0 0 0 0 0 0 0 0 0
0 0 0 0 0 0 0 0 0 0 0 0 0 0 0 0 0 0 0 0 0 0 0 0 0 0 0 0 0 0 0 0 0 0 0 0 0 0 0 0 0 0 0 0
Wind_Speed
2 1 3 5 8 11 11 7 6 5 7 10 8 6 5 4 4 7 8 8 8 7 6 6 5 5 5 4 4 4 4 5 4 5 5 5 6 6 7 7 7 7 8 8
6 4 5 7 9 10 11 8 9 10 9 4 4 4 5 4 5 7 8 8 8 8 7 6 5 5 4 3 3 3 4 4 3 4 4 5 6 6 7 7 7 8 8 8
6 5 5 9 11 12 7 8 7 5 3 4 6 5 5 4 4 6 7 7 8 8 7 6 5 5 4 3 3 4 4 3 3 4 4 5 5 6 6 7 7 7 8 8
4 6 8 3 4 7 7 6 8 7 7 6 7 6 6 6 6 6 6 6 7 7 7 6 5 5 4 3 4 4 4 3 3 3 4 4 5 6 6 6 6 7 7 8
5 6 5 4 6 7 7 5 5 5 4 3 3 4 2 1 3 5 5 5 5 6 6 6 5 5 5 5 4 4 4 4 4 4 4 5 5 6 6 6 7 7 6 7
6 6 6 5 7 5 5 6 4 4 2 1 3 2 3 4 3 3 3 4 5 5 6 6 6 5 6 6 5 5 5 5 4 5 5 5 5 6 6 6 6 7 6 6
8 7 5 6 6 6 7 5 5 3 2 2 2 4 5 5 4 3 3 3 4 6 6 6 6 6 8 7 6 5 5 5 6 6 6 6 6 5 6 6 6 7 7 6
7 8 5 8 9 7 2 5 3 2 2 2 3 4 4 4 4 4 3 2 4 5 6 6 6 7 9 9 7 5 6 7 8 8 7 6 6 6 6 6 6 6 6 6
6 2 5 4 2 2 2 3 2 2 1 2 2 2 3 4 4 4 3 2 3 5 6 6 6 8 10 9 6 6 7 8 9 9 8 8 8 8 7 6 6 6 5 5
6 6 5 3 3 2 3 4 2 2 1 1 0 2 3 4 5 5 6 5 3 3 5 5 5 6 8 9 7 8 9 9 9 9 9 9 7 7 7 6 6 5 5 5
7 5 6 6 6 4 3 4 4 4 3 3 3 4 4 5 6 6 6 6 5 4 5 6 6 6 6 7 8 9 10 10 9 9 9 8 8 7 8 8 6 6 6 5
8 10 9 8 9 8 7 6 6 7 7 6 5 6 6 7 7 7 8 8 7 8 8 8 8 8 8 8 8 9 9 9 8 7 7 8 8 8 10 11 8 11 11 9
2 6 6 10 10 9 8 8 7 7 7 7 7 7 7 7 7 8 9 10 10 10 9 10 9 10 11 11 9 9 10 9 8 8 7 8 8 8 8 9 13 14 14 14
9 11 10 10 10 10 10 9 9 9 8 8 7 7 7 8 8 9 10 10 9 10 10 10 11 12 13 13 11 10 10 9 9 8 8 8 8 8 8 8 7 7 12 16
13 8 8 11 13 12 11 10 10 9 9 8 8 7 8 8 8 8 9 8 9 10 11 11 12 13 13 13 13 12 10 8 8 8 8 8 8 8 8 9 9 8 7 8
14 10 13 15 15 14 12 12 10 9 8 8 7 7 7 7 7 8 8 8 9 10 11 11 12 13 13 14 14 10 9 10 10 9 8 8 8 8 8 8 9 9 8 8
20 17 18 17 16 14 12 10 9 9 8 8 7 7 7 7 7 8 8 8 8 9 10 11 12 13 13 14 14 10 10 10 12 9 8 8 8 8 8 8 9 9 9 8
17 16 17 18 16 15 13 11 10 9 8 8 7 7 7 7 7 7 7 7 7 9 10 11 12 12 12 14 13 10 10 10 10 10 9 9 9 9 9 9 9 10 9 8
14 16 17 16 15 14 13 11 10 9 9 8 8 8 7 7 7 6 6 7 8 9 10 11 13 11 13 15 14 10 11 12 11 11 10 11 10 9 9 9 10 10 10 9
17 17 17 16 14 13 12 11 10 9 8 8 8 8 7 7 6 5 5 6 6 6 8 10 10 11 12 13 14 10 11 12 12 11 11 11 11 11 11 11 11 10 10 10
18 18 17 15 14 12 12 11 10 10 8 7 7 7 6 5 4 3 4 4 5 7 7 8 7 9 10 11 11 9 10 11 11 11 11 11 11 12 12 12 12 11 11 11
17 16 15 14 14 12 11 10 10 9 8 7 6 5 4 3 2 2 2 2 4 6 7 6 6 10 13 14 8 9 9 10 10 9 10 10 11 11 12 13 12 12 12 12
14 14 14 14 13 12 11 9 9 8 7 6 5 4 3 1 1 2 2 3 4 7 7 6 9 14 16 11 8 9 9 10 10 9 9 10 10 10 11 12 11 12 12 12
13 13 12 12 11 11 11 9 8 6 6 5 4 4 3 2 2 2 3 4 6 9 8 8 11 14 14 9 8 9 9 9 9 10 10 10 9 10 10 10 11 11 12 14
12 12 12 12 10 8 9 9 8 7 6 5 6 6 5 4 4 5 5 7 8 9 8 9 11 12 11 9 9 9 10 9 10 11 10 10 10 10 10 10 11 11 12 12
11 9 9 10 8 7 7 6 6 6 6 5 5 5 5 4 5 6 6 7 9 9 9 8 8 9 8 9 10 10 10 11 10 10 11 11 12 12 11 11 14 11 11 12
10 9 7 7 6 6 6 6 6 6 6 6 5 5 5 5 5 6 7 7 7 7 7 7 8 8 8 9 10 10 10 10 11 11 11 11 11 11 12 14 12 12 12 12
Wind_Direction
225 122 202 215 197 199 220 248 270 292 294 304 323 324 312 288 242 223 222 222 227 237 249 257 268 279 290 298 293 281 280 286 303 313 319 325 329 330 330 331 333 337 333 335
201 201 228 239 224 212 227 245 256 276 285 294 316 296 285 269 240 230 226 224 226 232 244 253 261 272 280 284 289 278 281 286 298 300 317 322 330 330 330 331 335 336 332 336
207 176 225 239 216 202 206 215 233 253 312 336 307 308 305 300 258 246 236 227 225 231 240 253 261 275 287 308 297 281 286 288 291 296 310 320 327 325 327 327 333 333 333 332
219 195 230 100 105 180 203 218 224 256 289 301 300 298 285 276 267 258 240 227 224 226 230 239 246 251 267 268 266 272 280 283 284 285 294 304 311 317 321 325 327 326 329 328
226 225 237 175 174 181 196 184 194 230 269 309 315 263 176 47 278 265 254 235 228 228 232 236 243 252 254 255 260 269 277 274 270 271 282 295 306 315 323 322 322 324 327 323
223 235 231 153 136 169 207 181 162 209 257 320 273 265 67 32 337 283 253 237 230 224 229 237 239 241 253 264 264 265 265 260 258 261 270 280 293 305 313 312 312 312 315 319
229 241 245 123 139 175 208 149 139 190 242 253 276 354 4 346 335 318 273 246 235 232 235 238 239 235 248 260 263 263 254 252 249 250 257 267 279 285 292 301 306 309 313 310
209 224 212 135 170 201 80 97 149 194 236 272 300 328 338 341 340 331 308 268 246 243 244 241 237 240 253 263 270 261 245 245 247 247 250 253 257 269 279 288 293 300 306 314
215 219 78 159 206 34 322 244 221 235 257 268 275 341 4 9 8 2 346 320 277 261 264 258 242 243 258 269 271 257 248 246 247 248 245 248 254 259 266 269 279 296 305 310
221 215 190 183 202 218 238 242 244 242 244 235 177 42 37 34 26 20 14 4 334 293 281 282 276 260 266 278 276 264 259 259 255 252 249 242 241 252 259 266 271 280 290 299
223 180 173 201 201 189 178 169 150 129 107 97 101 75 57 49 37 26 20 15 6 348 333 325 320 306 299 294 284 272 268 265 264 258 256 257 249 243 251 254 259 267 281 284
220 193 189 177 164 168 163 151 141 130 110 88 81 78 69 58 42 34 29 25 21 14 4 356 352 349 345 330 305 283 274 271 266 261 255 254 257 249 228 237 236 229 241 259
151 139 137 133 147 158 151 137 129 120 111 101 85 77 73 66 52 45 39 33 27 22 16 13 11 7 358 345 329 306 288 282 277 268 259 252 252 256 259 233 226 235 235 234
147 137 144 159 158 155 145 136 126 114 104 95 88 81 76 71 59 48 39 33 30 30 25 20 16 11 359 349 339 325 310 298 289 280 270 262 256 252 253 261 253 240 225 225
178 183 163 150 148 151 150 148 139 125 112 99 89 81 75 70 61 50 40 33 35 34 26 18 14 7 357 351 345 337 330 323 313 298 284 274 266 258 252 251 253 256 251 216
169 160 152 154 155 155 158 155 142 129 119 108 96 86 80 76 69 58 46 35 34 31 20 13 10 2 355 352 347 342 338 333 323 309 297 286 275 267 259 254 251 251 250 249
162 167 168 164 161 158 155 149 138 131 123 113 102 96 91 85 73 58 46 39 40 35 23 14 6 358 357 357 351 344 342 342 336 324 320 312 301 289 279 270 263 259 256 249
179 170 166 161 155 150 146 141 136 131 123 117 114 104 91 78 68 57 46 39 39 37 25 14 3 355 2 4 354 348 347 348 346 345 339 334 324 311 301 292 284 277 272 256
161 154 151 150 148 145 143 141 137 131 127 126 117 104 93 82 72 61 52 45 34 25 16 8 355 360 6 8 355 352 354 353 352 351 348 344 336 333 325 315 306 297 290 281
147 145 143 142 143 143 141 140 137 132 130 128 122 114 101 87 74 65 58 55 40 17 5 357 355 5 4 4 355 355 357 356 355 354 353 351 348 345 341 335 327 319 310 300
145 144 144 144 144 144 144 144 141 137 135 134 126 116 106 95 79 59 43 44 34 7 348 341 351 1 359 348 345 354 356 356 355 355 353 351 348 347 346 345 339 333 327 321
147 147 148 147 147 147 148 147 143 141 140 138 134 133 130 120 94 55 37 1 349 343 329 336 346 350 341 331 338 346 348 349 349 350 350 349 347 345 344 343 340 340 337 333
149 150 151 153 152 148 149 151 151 150 152 155 158 162 164 149 318 316 330 343 332 334 319 321 331 327 324 321 330 334 336 339 340 340 342 341 341 339 338 338 337 336 333 333
150 153 153 153 153 155 159 161 162 166 173 179 188 204 225 243 259 269 289 296 298 304 301 308 308 313 313 311 320 322 324 326 327 329 329 329 329 330 331 330 329 328 327 327
154 155 156 160 166 170 168 168 174 183 195 204 212 218 230 246 267 285 292 295 298 294 295 301 302 304 302 310 314 315 315 316 317 315 313 317 317 319 320 321 322 321 319 318
160 164 169 178 179 176 175 181 190 194 200 209 219 226 232 237 250 261 271 280 286 288 290 298 304 301 306 312 312 312 311 310 308 306 308 310 309 311 310 312 314 314 313 312
171 172 177 183 186 191 192 196 203 206 209 218 229 236 243 251 256 263 271 278 286 292 296 299 303 306 308 309 310 310 309 309 308 308 307 307 306 305 305 306 306 306 306 306